Hourly Weather Kozlyatevo

Today, 20 October, Tuesday

Time Temperature Precipitation Wind Pressure Humidity
00:00 +1°C° 0.2 mm 5 mps 742 mmHg 82%
01:00 0°C° 0.2 mm 5 mps 742 mmHg 82%
02:00 0°C° 0.2 mm 5 mps 742 mmHg 81%
03:00 0°C° 0 mm 4 mps 743 mmHg 83%
04:00 0°C° 0 mm 4 mps 743 mmHg 85%
05:00 0°C° 0 mm 4 mps 743 mmHg 87%
06:00 0°C° 0.6 mm 4 mps 743 mmHg 90%
07:00 0°C° 0.6 mm 4 mps 743 mmHg 93%
08:00 0°C° 0.6 mm 3 mps 744 mmHg 95%
09:00 0°C° 0.2 mm 4 mps 744 mmHg 92%
10:00 0°C° 0.2 mm 4 mps 744 mmHg 89%
11:00 0°C° 0.2 mm 4 mps 745 mmHg 86%
12:00 +1°C° 0.1 mm 4 mps 745 mmHg 82%
13:00 +1°C° 0.1 mm 4 mps 746 mmHg 78%
14:00 +2°C° 0.1 mm 5 mps 747 mmHg 74%
15:00 +1°C° 0.1 mm 4 mps 747 mmHg 76%
16:00 0°C° 0.1 mm 4 mps 748 mmHg 79%
17:00 -1°C° 0.1 mm 4 mps 748 mmHg 81%
18:00 -1°C° 0 mm 4 mps 749 mmHg 84%
19:00 0°C° 0 mm 3 mps 749 mmHg 86%
20:00 -1°C° 0 mm 3 mps 750 mmHg 89%
21:00 -1°C° 0 mm 3 mps 750 mmHg 90%
22:00 -1°C° 0 mm 3 mps 750 mmHg 90%
23:00 -2°C° 0 mm 3 mps 751 mmHg 91%

Tomorrow, 21 October, Wednesday

Time Temperature Precipitation Wind Pressure Humidity
00:00 -2°C° 0 mm 3 mps 751 mmHg 92%
01:00 -2°C° 0 mm 3 mps 751 mmHg 92%
02:00 -2°C° 0 mm 2 mps 752 mmHg 92%
03:00 -2°C° 0 mm 2 mps 752 mmHg 93%
04:00 -2°C° 0 mm 2 mps 752 mmHg 93%
05:00 -2°C° 0 mm 2 mps 752 mmHg 94%
06:00 -2°C° 0 mm 2 mps 752 mmHg 91%
07:00 -1°C° 0 mm 2 mps 752 mmHg 89%
08:00 -1°C° 0 mm 2 mps 752 mmHg 86%
09:00 +1°C° 0 mm 2 mps 752 mmHg 83%
10:00 +2°C° 0 mm 2 mps 751 mmHg 79%
11:00 +3°C° 0 mm 2 mps 751 mmHg 75%
12:00 +3°C° 0 mm 2 mps 751 mmHg 77%
13:00 +3°C° 0 mm 2 mps 751 mmHg 79%
14:00 +3°C° 0 mm 2 mps 751 mmHg 81%
15:00 +4°C° 0.1 mm 1 mps 751 mmHg 87%
16:00 +3°C° 0.1 mm 1 mps 750 mmHg 92%
17:00 +3°C° 0.1 mm 1 mps 750 mmHg 97%
18:00 +3°C° 0.1 mm 1 mps 750 mmHg 97%
19:00 +3°C° 0.1 mm 1 mps 750 mmHg 97%
20:00 +3°C° 0.1 mm 1 mps 750 mmHg 98%
21:00 +3°C° 0 mm 1 mps 750 mmHg 97%
22:00 +3°C° 0 mm 1 mps 750 mmHg 97%
23:00 +3°C° 0 mm 1 mps 750 mmHg 96%

Day after tomorrow, 22 October, Thursday

Time Temperature Precipitation Wind Pressure Humidity
00:00 +3°C° 0 mm 1 mps 750 mmHg 96%
01:00 +4°C° 0 mm 1 mps 750 mmHg 96%
02:00 +4°C° 0 mm 1 mps 750 mmHg 95%
03:00 +4°C° 0 mm 1 mps 750 mmHg 95%
04:00 +4°C° 0 mm 1 mps 750 mmHg 96%
05:00 +4°C° 0 mm 1 mps 749 mmHg 96%
06:00 +3°C° 0 mm 2 mps 749 mmHg 95%
07:00 +3°C° 0 mm 2 mps 749 mmHg 95%
08:00 +3°C° 0 mm 2 mps 749 mmHg 94%
09:00 +3°C° 0 mm 3 mps 748 mmHg 91%
10:00 +4°C° 0 mm 3 mps 748 mmHg 87%
11:00 +5°C° 0 mm 3 mps 748 mmHg 84%
12:00 +5°C° 0.1 mm 3 mps 748 mmHg 85%
13:00 +5°C° 0.1 mm 4 mps 747 mmHg 86%
14:00 +5°C° 0.1 mm 4 mps 746 mmHg 87%
15:00 +5°C° 0.5 mm 4 mps 746 mmHg 89%
16:00 +5°C° 0.5 mm 4 mps 745 mmHg 91%
17:00 +5°C° 0.5 mm 4 mps 744 mmHg 93%
18:00 +5°C° 0.5 mm 4 mps 744 mmHg 94%
19:00 +5°C° 0.5 mm 4 mps 743 mmHg 94%
20:00 +6°C° 0.5 mm 4 mps 743 mmHg 95%
21:00 +6°C° 0.6 mm 4 mps 743 mmHg 94%
22:00 +7°C° 0.6 mm 4 mps 743 mmHg 94%
23:00 +7°C° 0.6 mm 4 mps 742 mmHg 94%

23 October, Friday

Time Temperature Precipitation Wind Pressure Humidity
00:00 +8°C° 0.1 mm 4 mps 742 mmHg 92%
01:00 +8°C° 0.1 mm 4 mps 742 mmHg 91%
02:00 +9°C° 0.1 mm 5 mps 742 mmHg 90%
03:00 +8°C° 0 mm 4 mps 742 mmHg 91%
04:00 +8°C° 0 mm 4 mps 743 mmHg 92%
05:00 +8°C° 0 mm 4 mps 743 mmHg 93%
06:00 +8°C° 0 mm 4 mps 742 mmHg 93%
07:00 +8°C° 0 mm 4 mps 742 mmHg 93%
08:00 +10°C° 0 mm 4 mps 742 mmHg 92%
09:00 +10°C° 0.2 mm 4 mps 742 mmHg 91%
10:00 +9°C° 0.2 mm 5 mps 741 mmHg 90%
11:00 +10°C° 0.2 mm 5 mps 741 mmHg 89%
12:00 +10°C° 0 mm 5 mps 741 mmHg 86%
13:00 +12°C° 0 mm 5 mps 740 mmHg 84%
14:00 +13°C° 0 mm 5 mps 740 mmHg 81%
15:00 +12°C° 0.3 mm 5 mps 739 mmHg 84%
16:00 +12°C° 0.3 mm 5 mps 739 mmHg 87%
17:00 +10°C° 0.3 mm 5 mps 739 mmHg 90%
18:00 +10°C° 0.6 mm 5 mps 738 mmHg 91%
19:00 +10°C° 0.6 mm 5 mps 738 mmHg 91%
20:00 +10°C° 0.6 mm 5 mps 738 mmHg 91%
21:00 +11°C° 0.2 mm 4 mps 738 mmHg 91%
22:00 +11°C° 0.2 mm 4 mps 738 mmHg 90%
23:00 +11°C° 0.2 mm 4 mps 737 mmHg 90%

24 October, Saturday

Time Temperature Precipitation Wind Pressure Humidity
00:00 +11°C° 0 mm 4 mps 737 mmHg 90%
01:00 +11°C° 0 mm 4 mps 737 mmHg 91%
02:00 +11°C° 0 mm 4 mps 737 mmHg 91%
03:00 +11°C° 0.2 mm 4 mps 737 mmHg 89%
04:00 +11°C° 0.2 mm 4 mps 737 mmHg 86%
05:00 +10°C° 0.2 mm 5 mps 737 mmHg 84%
06:00 +11°C° 0.1 mm 4 mps 738 mmHg 85%
07:00 +10°C° 0.1 mm 4 mps 738 mmHg 85%
08:00 +10°C° 0.1 mm 3 mps 738 mmHg 86%
09:00 +10°C° 0 mm 3 mps 739 mmHg 80%
10:00 +10°C° 0 mm 3 mps 740 mmHg 75%
11:00 +11°C° 0 mm 3 mps 740 mmHg 70%
12:00 +11°C° 0 mm 3 mps 740 mmHg 70%
13:00 +11°C° 0 mm 3 mps 740 mmHg 71%
14:00 +12°C° 0 mm 2 mps 741 mmHg 71%
15:00 +10°C° 0.1 mm 2 mps 740 mmHg 76%
16:00 +10°C° 0.1 mm 2 mps 740 mmHg 80%
17:00 +10°C° 0.1 mm 1 mps 740 mmHg 84%
18:00 +9°C° 0 mm 1 mps 740 mmHg 86%
19:00 +9°C° 0 mm 1 mps 740 mmHg 88%
20:00 +9°C° 0 mm 1 mps 740 mmHg 90%
21:00 +9°C° 0.1 mm 1 mps 740 mmHg 91%
22:00 +8°C° 0.1 mm 1 mps 740 mmHg 92%
23:00 +8°C° 0.1 mm 1 mps 740 mmHg 93%

25 October, Sunday

Time Temperature Precipitation Wind Pressure Humidity
00:00 +8°C° 0.4 mm 1 mps 739 mmHg 94%
01:00 +9°C° 0.4 mm 1 mps 739 mmHg 95%
02:00 +9°C° 0.4 mm 1 mps 739 mmHg 96%
03:00 +8°C° 0.1 mm 1 mps 739 mmHg 96%
04:00 +8°C° 0.1 mm 1 mps 739 mmHg 95%
05:00 +8°C° 0.1 mm 1 mps 739 mmHg 95%
06:00 +8°C° 0 mm 1 mps 739 mmHg 94%
07:00 +8°C° 0 mm 1 mps 739 mmHg 94%
08:00 +8°C° 0 mm 1 mps 739 mmHg 93%
09:00 +9°C° 0.1 mm 1 mps 739 mmHg 91%
10:00 +8°C° 0.1 mm 2 mps 739 mmHg 89%
11:00 +9°C° 0.1 mm 2 mps 739 mmHg 87%
12:00 +9°C° 0.1 mm 2 mps 740 mmHg 87%
13:00 +9°C° 0.1 mm 2 mps 740 mmHg 87%
14:00 +9°C° 0.1 mm 3 mps 740 mmHg 88%
15:00 +8°C° 0.3 mm 3 mps 741 mmHg 88%
16:00 +8°C° 0.3 mm 3 mps 741 mmHg 89%
17:00 +7°C° 0.3 mm 3 mps 741 mmHg 90%
18:00 +6°C° 0.5 mm 4 mps 742 mmHg 88%
19:00 +5°C° 0.5 mm 4 mps 742 mmHg 86%
20:00 +5°C° 0.5 mm 5 mps 743 mmHg 84%
21:00 +3°C° 0 mm 5 mps 744 mmHg 85%
22:00 +3°C° 0 mm 4 mps 744 mmHg 86%
23:00 +2°C° 0 mm 3 mps 745 mmHg 86%

26 October, Monday

Time Temperature Precipitation Wind Pressure Humidity
00:00 +2°C° 0 mm 3 mps 745 mmHg 88%
01:00 +1°C° 0 mm 3 mps 745 mmHg 89%
02:00 +1°C° 0 mm 3 mps 745 mmHg 90%
03:00 +2°C° 0 mm 3 mps 745 mmHg 87%
04:00 +1°C° 0 mm 4 mps 746 mmHg 84%
05:00 +1°C° 0 mm 4 mps 746 mmHg 80%
06:00 +1°C° 0 mm 4 mps 746 mmHg 80%
07:00 +1°C° 0 mm 4 mps 746 mmHg 79%
08:00 +1°C° 0 mm 4 mps 746 mmHg 79%
09:00 +1°C° 0 mm 4 mps 746 mmHg 80%
10:00 +1°C° 0 mm 5 mps 746 mmHg 82%
11:00 +1°C° 0 mm 5 mps 746 mmHg 83%
12:00 +1°C° 0.1 mm 5 mps 747 mmHg 80%
13:00 +2°C° 0.1 mm 5 mps 747 mmHg 77%
14:00 +2°C° 0.1 mm 6 mps 747 mmHg 73%
15:00 +1°C° 0.1 mm 5 mps 748 mmHg 75%
16:00 0°C° 0.1 mm 4 mps 749 mmHg 77%
17:00 0°C° 0.1 mm 4 mps 749 mmHg 78%
18:00 0°C° 0 mm 3 mps 750 mmHg 80%
19:00 -1°C° 0 mm 3 mps 751 mmHg 82%
20:00 -1°C° 0 mm 3 mps 752 mmHg 84%
21:00 -1°C° 0 mm 3 mps 752 mmHg 84%
22:00 -1°C° 0 mm 2 mps 753 mmHg 84%
23:00 -1°C° 0 mm 2 mps 753 mmHg 84%
Show more